Regional Weather Roundup
Issued by NWS

Home | Current Version | Previous Version | Text Only | Print | Product List | Glossary On
Versions: 1 2 3 4 5 6 7 8 9 10 11 12 13 14 15 16 17 18 19 20 21 22 23 24 25 26 27 28 29 30 31 32 33 34 35 36 37 38 39 40 41 42 43 44 45 46 47 48 49 50
000
ASUS43 KLSX 270107
RWRMO

WEATHER SUMMARY FOR MISSOURI
NATIONAL WEATHER SERVICE SPRINGFIELD MO
700 PM CST FRI DEC 26 2014

NOTE: "FAIR" INDICATES FEW OR NO CLOUDS BELOW 12,000 FEET WITH NO
       SIGNIFICANT WEATHER AND/OR OBSTRUCTIONS TO VISIBILITY.
       CURRENT SKY AND/OR WEATHER CONDITIONS ARE NOT AVAILABLE FOR
       CHILLICOTHE AND FARMINGTON.

MOZ001>031-035>038-043-044-053-054-270200-
...NORTHERN AND WESTERN MISSOURI...

CITY           SKY/WX    TMP DP  RH WIND       PRES   REMARKS
KANSAS CTY INT DRIZZLE   39  34  82 NW6       29.96R
KANSAS C DTWN  CLOUDY    43  35  73 N6        29.96R
LEE`S SUMMIT   CLOUDY    44  36  73 N7        29.96R
ST JOSEPH      CLOUDY    37  33  85 NW9       29.98R
CHILLICOTHE      N/A     47  40  76 NW5       29.97R
KIRKSVILLE     LGT RAIN  48  44  86 CALM      29.94S

$$
MOZ066>068-077>081-088>096-101>105-270200-
...SOUTHWEST MISSOURI...

CITY           SKY/WX    TMP DP  RH WIND       PRES   REMARKS
SPRINGFIELD    CLOUDY    50  47  89 S15       29.97R
JOPLIN         CLOUDY    52  51  97 S5        29.96R FOG

$$
MOZ032>034-039>042-045>050-055>058-069>072-270200-
...CENTRAL MISSOURI...

CITY           SKY/WX    TMP DP  RH WIND       PRES   REMARKS
COLUMBIA       CLOUDY    54  46  74 S12       29.96S
JEFFERSON CITY CLOUDY    56  46  69 S8G18     29.98R
ROLLA          CLOUDY    51  43  74 S13       29.98S
SEDALIA        CLOUDY    54  46  74 S9        29.94S
WHITEMAN AFB   CLOUDY    53  47  78 S12       29.93S
WARRENSBURG    CLOUDY    50  45  81 CALM      29.93S
OSAGE BEACH    CLOUDY    52  45  76 S9G17     29.98R

$$
MOZ051-052-059>065-270200-
...EAST CENTRAL MISSOURI...

CITY           SKY/WX    TMP DP  RH WIND       PRES   REMARKS
ST LOUIS INTL  DRIZZLE   55  42  61 S13       30.03R
SPIRIT OF STL  CLOUDY    54  44  69 VRB6      30.02R
ST CHARLES     CLOUDY    53  45  74 S13       30.02R

$$
MOZ072>076-082>087-097>100-106>115-270200-
...SOUTH CENTRAL AND SOUTHEAST MISSOURI...

CITY           SKY/WX    TMP DP  RH WIND       PRES   REMARKS
CAPE GIRARDEAU PTCLDY    49  41  74 SE8       30.13R
FARMINGTON     CLOUDY    48  41  76 SE14      30.08R
POPLAR BLUFF   CLOUDY    50  42  74 S6        30.10R
WEST PLAINS    CLOUDY    48  38  68 SE12      30.04S

$$



USA.gov is the U.S. government's official web portal to all federal, state and local government web resources and services.